PIMOHWEATHER Station Historical Data
Daily Summary for August 19, 2020 Units:  Metric    English   Both
Daily Weekly Monthly Yearly
  High: Low: Average:
Temperature: 33.0 °C 24.0 °C 27.5 °C
Dew Point: 26.0 °C 23.0 °C 24.6 °C
Humidity: 95% 63% 85%
Wind Speed: 43km/h 0km/h 11km/h
Wind Gust: 56km/h - -
Wind- - SSE
Pressure: 1013.6 hPa 1009.0 hPa -
Precipitation: 39.29 mm    
 
 
Tabular Data for August 19, 2020
Time Temperature Dew Point Pressure Wind Wind Speed Wind Gust Humidity Rainfall Rate (Hourly) solar
00:04 28.0 °C 25.0 °C 1012.2 hPa Calm     86% 0.00 mm 0.00 W/m2
00:09 28.0 °C 25.0 °C 1012.1 hPa SSE 3 km/h 4 km/h 87% 0.00 mm 0.00 W/m2
00:14 28.0 °C 25.0 °C 1012.2 hPa Calm     87% 0.00 mm 0.00 W/m2
00:19 28.0 °C 25.0 °C 1012.0 hPa SSE 4 km/h 4 km/h 87% 0.00 mm 0.00 W/m2
00:24 27.0 °C 25.0 °C 1012.0 hPa SSE 1 km/h 4 km/h 87% 0.00 mm 0.00 W/m2
00:29 27.0 °C 25.0 °C 1012.0 hPa East 5 km/h 8 km/h 87% 0.00 mm 0.00 W/m2
00:34 27.0 °C 25.0 °C 1011.9 hPa NE 7 km/h 12 km/h 89% 0.00 mm 0.00 W/m2
00:39 27.0 °C 25.0 °C 1012.0 hPa NE 7 km/h 12 km/h 89% 0.00 mm 0.00 W/m2
00:44 27.0 °C 25.0 °C 1011.9 hPa ENE 3 km/h 4 km/h 89% 0.00 mm 0.00 W/m2
00:49 27.0 °C 25.0 °C 1011.8 hPa East 1 km/h 4 km/h 89% 0.00 mm 0.00 W/m2
00:54 27.0 °C 25.0 °C 1011.7 hPa East 3 km/h 4 km/h 89% 0.00 mm 0.00 W/m2
00:59 27.0 °C 25.0 °C 1011.6 hPa East 1 km/h 4 km/h 89% 0.00 mm 0.00 W/m2
01:04 27.0 °C 25.0 °C 1011.7 hPa SE 5 km/h 8 km/h 89% 0.00 mm 0.00 W/m2
01:09 27.0 °C 25.0 °C 1011.6 hPa SE 1 km/h 4 km/h 89% 0.00 mm 0.00 W/m2
01:11 27.0 °C 25.0 °C 1011.6 hPa Calm     89% 0.00 mm 0.00 W/m2
01:24 27.0 °C 25.0 °C 1011.3 hPa SE 4 km/h 4 km/h 90% 0.00 mm 0.00 W/m2
01:29 27.0 °C 25.0 °C 1011.3 hPa SE 4 km/h 4 km/h 90% 0.00 mm 0.00 W/m2
01:34 27.0 °C 25.0 °C 1011.3 hPa SE 3 km/h 4 km/h 89% 0.00 mm 0.00 W/m2
01:39 27.0 °C 25.0 °C 1010.9 hPa SE 2 km/h 4 km/h 90% 0.00 mm 0.00 W/m2
01:44 27.0 °C 25.0 °C 1010.9 hPa Calm     89% 0.00 mm 0.00 W/m2
01:49 27.0 °C 25.0 °C 1010.8 hPa SE 7 km/h 8 km/h 90% 0.00 mm 0.00 W/m2
01:54 27.0 °C 25.0 °C 1010.8 hPa SE 5 km/h 8 km/h 90% 0.00 mm 0.00 W/m2
01:59 27.0 °C 25.0 °C 1010.8 hPa SE 3 km/h 4 km/h 90% 0.00 mm 0.00 W/m2
02:04 27.0 °C 25.0 °C 1010.7 hPa SE 4 km/h 8 km/h 90% 0.00 mm 0.00 W/m2
02:09 27.0 °C 25.0 °C 1010.7 hPa SE 2 km/h 4 km/h 90% 0.00 mm 0.00 W/m2
02:14 27.0 °C 25.0 °C 1010.7 hPa ENE 6 km/h 8 km/h 89% 0.00 mm 0.00 W/m2
02:19 27.0 °C 25.0 °C 1010.5 hPa NE 5 km/h 8 km/h 89% 0.00 mm 0.00 W/m2
02:24 27.0 °C 25.0 °C 1010.6 hPa Calm     90% 0.00 mm 0.00 W/m2
02:29 27.0 °C 25.0 °C 1010.6 hPa ENE 4 km/h 4 km/h 89% 0.00 mm 0.00 W/m2
02:34 27.0 °C 25.0 °C 1010.6 hPa ENE 1 km/h 4 km/h 89% 0.00 mm 0.00 W/m2
02:39 27.0 °C 25.0 °C 1010.6 hPa ENE 4 km/h 8 km/h 89% 0.00 mm 0.00 W/m2
02:44 26.0 °C 25.0 °C 1010.6 hPa ENE 9 km/h 12 km/h 89% 0.00 mm 0.00 W/m2
02:49 26.0 °C 25.0 °C 1010.5 hPa NE 9 km/h 12 km/h 89% 0.00 mm 0.00 W/m2
02:54 26.0 °C 24.0 °C 1010.5 hPa NE 10 km/h 12 km/h 89% 0.00 mm 0.00 W/m2
02:55 26.0 °C 24.0 °C 1010.4 hPa NE 8 km/h 12 km/h 89% 0.00 mm 0.00 W/m2
03:04 26.0 °C 24.0 °C 1010.4 hPa NE 4 km/h 8 km/h 88% 0.00 mm 0.00 W/m2
03:09 26.0 °C 24.0 °C 1010.5 hPa NE 3 km/h 8 km/h 88% 0.00 mm 0.00 W/m2
03:14 26.0 °C 24.0 °C 1010.5 hPa NE 5 km/h 8 km/h 88% 0.00 mm 0.00 W/m2
03:19 26.0 °C 24.0 °C 1010.4 hPa NE 6 km/h 8 km/h 88% 0.00 mm 0.00 W/m2
03:24 26.0 °C 24.0 °C 1010.3 hPa NNE 4 km/h 4 km/h 88% 0.00 mm 0.00 W/m2
03:29 26.0 °C 24.0 °C 1010.4 hPa NE 1 km/h 4 km/h 88% 0.00 mm 0.00 W/m2
03:34 26.0 °C 24.0 °C 1010.4 hPa Calm     88% 0.00 mm 0.00 W/m2
03:39 26.0 °C 24.0 °C 1010.4 hPa Calm     88% 0.00 mm 0.00 W/m2
03:44 26.0 °C 24.0 °C 1010.5 hPa NE 4 km/h 4 km/h 88% 0.00 mm 0.00 W/m2
03:49 26.0 °C 24.0 °C 1010.6 hPa NE 8 km/h 8 km/h 88% 0.00 mm 0.00 W/m2
03:54 26.0 °C 24.0 °C 1010.8 hPa Calm     88% 0.00 mm 0.00 W/m2
03:59 26.0 °C 24.0 °C 1010.9 hPa Calm     88% 0.00 mm 0.00 W/m2
04:04 26.0 °C 24.0 °C 1010.8 hPa ENE 5 km/h 8 km/h 87% 0.00 mm 0.00 W/m2
04:09 26.0 °C 24.0 °C 1010.7 hPa NE 4 km/h 4 km/h 87% 0.00 mm 0.00 W/m2
04:14 26.0 °C 24.0 °C 1010.5 hPa Calm   4 km/h 87% 0.00 mm 0.00 W/m2
04:19 26.0 °C 24.0 °C 1010.5 hPa Calm     88% 0.00 mm 0.00 W/m2
04:24 26.0 °C 24.0 °C 1010.7 hPa Calm   4 km/h 88% 0.00 mm 0.00 W/m2
04:29 26.0 °C 24.0 °C 1010.6 hPa East 5 km/h 8 km/h 87% 0.00 mm 0.00 W/m2
04:34 26.0 °C 24.0 °C 1010.9 hPa East 3 km/h 4 km/h 87% 0.00 mm 0.00 W/m2
04:39 26.0 °C 24.0 °C 1010.9 hPa Calm     87% 0.00 mm 0.00 W/m2
04:54 26.0 °C 24.0 °C 1010.5 hPa South 4 km/h 4 km/h 88% 0.00 mm 0.00 W/m2
04:59 26.0 °C 24.0 °C 1010.6 hPa Calm     88% 0.00 mm 0.00 W/m2
05:04 26.0 °C 24.0 °C 1010.7 hPa Calm     88% 0.00 mm 0.00 W/m2
05:09 26.0 °C 24.0 °C 1010.8 hPa ESE 2 km/h 4 km/h 88% 0.00 mm 0.00 W/m2
05:14 26.0 °C 24.0 °C 1010.7 hPa Calm     88% 0.00 mm 0.00 W/m2
05:19 26.0 °C 24.0 °C 1010.8 hPa ESE 4 km/h 4 km/h 88% 0.00 mm 0.00 W/m2
05:24 26.0 °C 24.0 °C 1010.6 hPa ESE 4 km/h 4 km/h 88% 0.00 mm 0.00 W/m2
05:29 26.0 °C 24.0 °C 1010.9 hPa ESE 2 km/h 4 km/h 88% 0.00 mm 0.00 W/m2
05:34 26.0 °C 24.0 °C 1010.8 hPa ESE 1 km/h 4 km/h 88% 0.00 mm 0.00 W/m2
05:39 26.0 °C 24.0 °C 1011.1 hPa Calm     88% 0.00 mm 0.00 W/m2
05:44 26.0 °C 24.0 °C 1011.0 hPa ESE 7 km/h 12 km/h 88% 0.00 mm 1.71 W/m2
05:49 26.0 °C 24.0 °C 1011.1 hPa Calm   4 km/h 88% 0.00 mm 4.28 W/m2
05:54 26.0 °C 24.0 °C 1011.0 hPa ESE 3 km/h 4 km/h 88% 0.00 mm 8.19 W/m2
05:59 26.0 °C 24.0 °C 1011.1 hPa ESE 3 km/h 4 km/h 88% 0.00 mm 13.82 W/m2
06:04 26.0 °C 24.0 °C 1011.2 hPa Calm   4 km/h 87% 0.00 mm 22.02 W/m2
06:09 26.0 °C 24.0 °C 1011.4 hPa ESE 1 km/h 4 km/h 87% 0.00 mm 28.99 W/m2
06:14 26.0 °C 24.0 °C 1011.4 hPa ESE 3 km/h 4 km/h 87% 0.00 mm 34.25 W/m2
06:19 26.0 °C 24.0 °C 1011.2 hPa NE 8 km/h 8 km/h 87% 0.00 mm 40.73 W/m2
06:24 26.0 °C 24.0 °C 1011.2 hPa NNE 5 km/h 8 km/h 86% 0.00 mm 46.73 W/m2
06:34 27.0 °C 24.0 °C 1011.3 hPa NNE 4 km/h 4 km/h 85% 0.00 mm 61.17 W/m2
06:39 27.0 °C 24.0 °C 1011.2 hPa NNE 1 km/h 4 km/h 85% 0.00 mm 67.16 W/m2
06:44 27.0 °C 24.0 °C 1011.2 hPa Calm   4 km/h 85% 0.00 mm 73.65 W/m2
06:49 27.0 °C 24.0 °C 1011.3 hPa Calm     83% 0.00 mm 79.76 W/m2
06:54 27.0 °C 24.0 °C 1011.4 hPa NNE 3 km/h 4 km/h 83% 0.00 mm 85.39 W/m2
06:59 27.0 °C 24.0 °C 1011.3 hPa NNE 5 km/h 8 km/h 84% 0.00 mm 93.22 W/m2
07:04 27.0 °C 24.0 °C 1011.3 hPa NNE 6 km/h 8 km/h 84% 0.00 mm 100.19 W/m2
07:09 27.0 °C 24.0 °C 1011.5 hPa NE 1 km/h 4 km/h 84% 0.00 mm 107.90 W/m2
07:14 28.0 °C 24.0 °C 1011.5 hPa NNE 10 km/h 12 km/h 83% 0.00 mm 116.22 W/m2
07:19 27.0 °C 24.0 °C 1011.5 hPa NNE 11 km/h 12 km/h 83% 0.00 mm 126.12 W/m2
07:24 27.0 °C 24.0 °C 1011.5 hPa NNE 18 km/h 20 km/h 83% 0.00 mm 140.07 W/m2
07:29 27.0 °C 24.0 °C 1011.5 hPa NNE 15 km/h 20 km/h 84% 0.00 mm 149.12 W/m2
07:34 27.0 °C 24.0 °C 1011.7 hPa NNE 14 km/h 16 km/h 84% 0.00 mm 165.27 W/m2
07:39 27.0 °C 24.0 °C 1011.7 hPa ENE 4 km/h 8 km/h 83% 0.00 mm 178.24 W/m2
07:44 27.0 °C 24.0 °C 1011.8 hPa NNE 10 km/h 12 km/h 82% 0.00 mm 192.07 W/m2
07:49 27.0 °C 24.0 °C 1011.8 hPa NNE 12 km/h 12 km/h 82% 0.00 mm 204.66 W/m2
07:54 27.0 °C 24.0 °C 1012.0 hPa NNE 12 km/h 16 km/h 82% 0.00 mm 223.75 W/m2
07:59 28.0 °C 24.0 °C 1012.0 hPa NNE 14 km/h 16 km/h 81% 0.00 mm 246.39 W/m2
08:04 28.0 °C 24.0 °C 1012.2 hPa NNE 9 km/h 12 km/h 80% 0.00 mm 281.00 W/m2
08:09 28.0 °C 24.0 °C 1012.1 hPa NNE 14 km/h 16 km/h 80% 0.00 mm 280.15 W/m2
08:14 28.0 °C 24.0 °C 1012.3 hPa NNE 16 km/h 20 km/h 81% 0.00 mm 279.29 W/m2
08:19 28.0 °C 24.0 °C 1012.3 hPa NNE 14 km/h 16 km/h 81% 0.00 mm 289.69 W/m2
08:24 29.0 °C 25.0 °C 1012.2 hPa North 13 km/h 16 km/h 80% 0.00 mm 432.94 W/m2
08:29 29.0 °C 25.0 °C 1012.2 hPa NNE 12 km/h 12 km/h 79% 0.00 mm 500.60 W/m2
08:34 29.0 °C 25.0 °C 1012.3 hPa NE 10 km/h 12 km/h 79% 0.00 mm 500.11 W/m2
08:39 29.0 °C 25.0 °C 1012.4 hPa SE 9 km/h 12 km/h 78% 0.00 mm 562.13 W/m2
08:44 30.0 °C 25.0 °C 1012.4 hPa ESE 4 km/h 4 km/h 75% 0.00 mm 721.41 W/m2
08:49 31.0 °C 26.0 °C 1012.3 hPa NE 14 km/h 16 km/h 77% 0.00 mm 726.55 W/m2
08:54 30.0 °C 26.0 °C 1012.2 hPa NNE 12 km/h 12 km/h 77% 0.00 mm 713.09 W/m2
08:59 30.0 °C 25.0 °C 1012.2 hPa North 14 km/h 16 km/h 75% 0.00 mm 694.50 W/m2
09:04 30.0 °C 25.0 °C 1012.1 hPa NNW 23 km/h 24 km/h 75% 0.00 mm 565.68 W/m2
09:06 30.0 °C 25.0 °C 1011.8 hPa NNW 5 km/h 8 km/h 76% 0.00 mm 417.28 W/m2
09:39 30.0 °C 25.0 °C 1011.7 hPa North 15 km/h 16 km/h 75% 0.00 mm 352.57 W/m2
09:44 30.0 °C 25.0 °C 1011.8 hPa North 15 km/h 20 km/h 75% 0.00 mm 709.67 W/m2
09:49 31.0 °C 25.0 °C 1011.8 hPa NNW 12 km/h 16 km/h 74% 0.00 mm 710.04 W/m2
09:54 31.0 °C 25.0 °C 1011.7 hPa NNW 21 km/h 24 km/h 72% 0.00 mm 787.36 W/m2
09:59 31.0 °C 26.0 °C 1011.7 hPa NNW 22 km/h 28 km/h 75% 0.00 mm 288.47 W/m2
10:04 30.0 °C 25.0 °C 1011.6 hPa NW 22 km/h 24 km/h 75% 0.00 mm 195.61 W/m2
10:09 30.0 °C 25.0 °C 1011.7 hPa NNW 16 km/h 20 km/h 76% 0.00 mm 350.86 W/m2
10:14 30.0 °C 25.0 °C 1011.7 hPa NNW 17 km/h 20 km/h 76% 0.00 mm 220.32 W/m2
10:19 30.0 °C 25.0 °C 1011.9 hPa NW 12 km/h 16 km/h 76% 0.00 mm 344.86 W/m2
10:24 30.0 °C 25.0 °C 1012.1 hPa NNW 15 km/h 20 km/h 75% 0.00 mm 368.72 W/m2
10:29 30.0 °C 25.0 °C 1012.0 hPa NW 12 km/h 12 km/h 74% 0.00 mm 356.49 W/m2
10:34 30.0 °C 25.0 °C 1011.9 hPa NNW 15 km/h 20 km/h 75% 0.00 mm 261.07 W/m2
10:39 30.0 °C 25.0 °C 1012.0 hPa NW 6 km/h 12 km/h 75% 0.00 mm 252.01 W/m2
10:44 30.0 °C 25.0 °C 1012.0 hPa NW 8 km/h 12 km/h 74% 0.00 mm 643.73 W/m2
10:49 31.0 °C 25.0 °C 1011.8 hPa NW 9 km/h 12 km/h 74% 0.00 mm 740.87 W/m2
10:54 31.0 °C 26.0 °C 1011.8 hPa NNW 26 km/h 28 km/h 73% 0.00 mm 576.45 W/m2
10:59 31.0 °C 25.0 °C 1011.7 hPa NNW 24 km/h 28 km/h 74% 0.00 mm 344.01 W/m2
11:04 31.0 °C 25.0 °C 1011.7 hPa NNW 14 km/h 16 km/h 73% 0.00 mm 358.32 W/m2
11:09 31.0 °C 25.0 °C 1011.7 hPa NNW 23 km/h 28 km/h 72% 0.00 mm 416.43 W/m2
11:14 31.0 °C 25.0 °C 1011.6 hPa NNE 11 km/h 16 km/h 73% 0.00 mm 354.40 W/m2
11:19 31.0 °C 26.0 °C 1011.7 hPa SW 13 km/h 16 km/h 74% 0.00 mm 250.30 W/m2
11:24 31.0 °C 26.0 °C 1011.7 hPa West 18 km/h 28 km/h 75% 0.00 mm 184.73 W/m2
11:29 31.0 °C 26.0 °C 1011.6 hPa WNW 17 km/h 24 km/h 76% 0.00 mm 179.59 W/m2
11:34 30.0 °C 26.0 °C 1011.3 hPa NW 11 km/h 12 km/h 76% 0.00 mm 146.19 W/m2
11:39 31.0 °C 26.0 °C 1011.4 hPa West 11 km/h 16 km/h 76% 0.00 mm 127.47 W/m2
11:44 30.0 °C 26.0 °C 1011.5 hPa West 20 km/h 24 km/h 76% 0.00 mm 156.95 W/m2
11:49 30.0 °C 26.0 °C 1011.3 hPa NNW 23 km/h 24 km/h 75% 0.00 mm 316.61 W/m2
11:54 31.0 °C 26.0 °C 1011.2 hPa West 9 km/h 12 km/h 75% 0.00 mm 438.08 W/m2
11:59 31.0 °C 26.0 °C 1011.0 hPa NW 11 km/h 12 km/h 74% 0.00 mm 667.96 W/m2
12:04 31.0 °C 26.0 °C 1010.9 hPa NNW 19 km/h 24 km/h 72% 0.00 mm 705.75 W/m2
12:09 31.0 °C 25.0 °C 1010.7 hPa NNW 21 km/h 28 km/h 71% 0.00 mm 767.78 W/m2
12:14 32.0 °C 25.0 °C 1010.5 hPa North 19 km/h 24 km/h 70% 0.00 mm 815.12 W/m2
12:19 32.0 °C 25.0 °C 1010.3 hPa North 21 km/h 24 km/h 68% 0.00 mm 818.55 W/m2
12:24 33.0 °C 25.0 °C 1010.3 hPa North 17 km/h 24 km/h 67% 0.00 mm 769.49 W/m2
12:29 33.0 °C 26.0 °C 1010.2 hPa WSW 21 km/h 24 km/h 67% 0.00 mm 663.67 W/m2
12:34 33.0 °C 26.0 °C 1010.1 hPa WSW 29 km/h 36 km/h 69% 0.00 mm 343.52 W/m2
12:39 32.0 °C 26.0 °C 1010.2 hPa SW 18 km/h 28 km/h 70% 0.00 mm 200.39 W/m2
12:44 32.0 °C 26.0 °C 1010.1 hPa WSW 18 km/h 24 km/h 70% 0.00 mm 185.22 W/m2
12:49 32.0 °C 26.0 °C 1010.0 hPa SW 28 km/h 32 km/h 72% 0.00 mm 137.51 W/m2
12:54 31.0 °C 25.0 °C 1010.1 hPa SSW 13 km/h 16 km/h 71% 0.00 mm 134.81 W/m2
12:59 31.0 °C 25.0 °C 1009.8 hPa SW 12 km/h 16 km/h 71% 0.00 mm 142.27 W/m2
13:04 31.0 °C 25.0 °C 1009.9 hPa WNW 9 km/h 16 km/h 71% 0.00 mm 189.98 W/m2
13:09 31.0 °C 25.0 °C 1009.6 hPa SW 17 km/h 20 km/h 70% 0.00 mm 248.95 W/m2
13:14 32.0 °C 25.0 °C 1009.6 hPa WNW 10 km/h 16 km/h 69% 0.00 mm 298.86 W/m2
13:19 32.0 °C 25.0 °C 1009.6 hPa WSW 12 km/h 16 km/h 67% 0.00 mm 291.89 W/m2
13:24 32.0 °C 24.0 °C 1009.5 hPa WNW 12 km/h 20 km/h 63% 0.00 mm 362.60 W/m2
13:29 32.0 °C 25.0 °C 1009.5 hPa SW 14 km/h 24 km/h 69% 0.00 mm 235.00 W/m2
13:34 32.0 °C 26.0 °C 1009.4 hPa SSW 14 km/h 20 km/h 70% 0.00 mm 157.81 W/m2
13:39 31.0 °C 25.0 °C 1009.4 hPa SW 18 km/h 24 km/h 69% 0.00 mm 139.58 W/m2
13:44 31.0 °C 25.0 °C 1009.3 hPa WSW 17 km/h 24 km/h 71% 0.00 mm 122.70 W/m2
13:49 31.0 °C 25.0 °C 1009.1 hPa SW 17 km/h 24 km/h 71% 0.00 mm 124.90 W/m2
13:54 31.0 °C 25.0 °C 1009.1 hPa WSW 16 km/h 20 km/h 70% 0.00 mm 114.87 W/m2
13:59 31.0 °C 25.0 °C 1009.2 hPa SW 18 km/h 24 km/h 69% 0.00 mm 101.05 W/m2
14:04 31.0 °C 25.0 °C 1009.3 hPa SW 15 km/h 20 km/h 70% 0.00 mm 74.99 W/m2
14:09 31.0 °C 24.0 °C 1009.2 hPa SW 17 km/h 24 km/h 69% 0.00 mm 79.76 W/m2
14:14 31.0 °C 24.0 °C 1009.2 hPa SW 12 km/h 16 km/h 70% 0.00 mm 125.27 W/m2
14:19 31.0 °C 25.0 °C 1009.0 hPa SSW 17 km/h 20 km/h 70% 0.00 mm 130.04 W/m2
14:24 31.0 °C 26.0 °C 1009.2 hPa South 24 km/h 28 km/h 78% 0.00 mm 119.64 W/m2
14:29 30.0 °C 26.0 °C 1009.2 hPa South 25 km/h 32 km/h 80% 0.00 mm 145.21 W/m2
14:34 29.0 °C 25.0 °C 1009.2 hPa SSE 17 km/h 20 km/h 79% 0.00 mm 147.41 W/m2
14:39 29.0 °C 25.0 °C 1009.2 hPa South 16 km/h 20 km/h 78% 0.00 mm 111.82 W/m2
14:44 29.0 °C 25.0 °C 1009.2 hPa SSW 22 km/h 24 km/h 79% 0.00 mm 80.62 W/m2
14:49 29.0 °C 25.0 °C 1009.4 hPa SSW 19 km/h 24 km/h 80% 0.00 mm 48.56 W/m2
14:54 29.0 °C 25.0 °C 1009.6 hPa WSW 12 km/h 16 km/h 79% 0.00 mm 26.79 W/m2
14:59 29.0 °C 25.0 °C 1010.0 hPa North 30 km/h 32 km/h 79% 0.00 mm 18.11 W/m2
15:04 28.0 °C 24.0 °C 1010.2 hPa NNW 26 km/h 36 km/h 83% 0.00 mm 9.54 W/m2
15:09 27.0 °C 25.0 °C 1010.1 hPa North 29 km/h 36 km/h 88% 0.00 mm 16.02 W/m2
15:14 27.0 °C 25.0 °C 1010.2 hPa NNE 40 km/h 56 km/h 92% 5.41 mm 13.82 W/m2
15:19 26.0 °C 25.0 °C 1010.2 hPa NNE 37 km/h 48 km/h 94% 32.41 mm 28.63 W/m2
15:24 25.0 °C 24.0 °C 1009.9 hPa North 43 km/h 44 km/h 95% 50.39 mm 38.17 W/m2
15:29 25.0 °C 24.0 °C 1009.9 hPa NNW 36 km/h 44 km/h 95% 52.20 mm 45.87 W/m2
15:34 25.0 °C 24.0 °C 1009.9 hPa NNW 29 km/h 36 km/h 94% 37.80 mm 52.48 W/m2
15:39 25.0 °C 24.0 °C 1009.7 hPa NNW 29 km/h 40 km/h 92% 18.01 mm 53.34 W/m2
15:44 25.0 °C 24.0 °C 1009.9 hPa NNW 24 km/h 28 km/h 93% 3.61 mm 48.56 W/m2
15:49 25.0 °C 24.0 °C 1009.8 hPa North 20 km/h 24 km/h 93% 1.80 mm 46.73 W/m2
15:54 25.0 °C 24.0 °C 1010.1 hPa NNE 20 km/h 24 km/h 92% 1.80 mm 42.94 W/m2
15:59 25.0 °C 24.0 °C 1010.1 hPa NNE 26 km/h 32 km/h 92% 7.19 mm 33.76 W/m2
16:04 25.0 °C 24.0 °C 1009.9 hPa NNE 21 km/h 28 km/h 93% 14.40 mm 39.39 W/m2
16:09 25.0 °C 24.0 °C 1010.2 hPa NNE 28 km/h 32 km/h 93% 23.39 mm 27.65 W/m2
16:14 24.0 °C 23.0 °C 1009.9 hPa NNE 18 km/h 24 km/h 93% 25.20 mm 23.36 W/m2
16:19 25.0 °C 24.0 °C 1009.6 hPa NE 5 km/h 8 km/h 94% 28.80 mm 22.02 W/m2
16:24 25.0 °C 24.0 °C 1009.6 hPa North 2 km/h 4 km/h 94% 21.59 mm 18.11 W/m2
16:29 25.0 °C 24.0 °C 1009.6 hPa SSW 4 km/h 8 km/h 93% 21.59 mm 16.39 W/m2
16:34 25.0 °C 24.0 °C 1009.4 hPa SE 8 km/h 8 km/h 92% 12.60 mm 17.25 W/m2
16:39 25.0 °C 24.0 °C 1009.6 hPa East 5 km/h 8 km/h 92% 5.41 mm 17.25 W/m2
16:44 26.0 °C 24.0 °C 1009.7 hPa SSE 10 km/h 12 km/h 92% 3.61 mm 13.82 W/m2
16:49 26.0 °C 24.0 °C 1009.7 hPa South 18 km/h 32 km/h 91% 3.61 mm 12.48 W/m2
16:54 26.0 °C 25.0 °C 1009.9 hPa South 26 km/h 32 km/h 93% 3.61 mm 10.77 W/m2
16:59 26.0 °C 25.0 °C 1009.7 hPa SSW 19 km/h 20 km/h 93% 1.80 mm 9.91 W/m2
17:04 26.0 °C 25.0 °C 1009.8 hPa SSW 16 km/h 20 km/h 92% 1.80 mm 8.56 W/m2
17:09 26.0 °C 25.0 °C 1009.8 hPa SSW 15 km/h 20 km/h 92% 1.80 mm 8.56 W/m2
17:14 26.0 °C 25.0 °C 1010.0 hPa SSW 18 km/h 20 km/h 92% 0.00 mm 7.70 W/m2
17:19 26.0 °C 25.0 °C 1010.0 hPa SSW 10 km/h 16 km/h 92% 0.00 mm 7.34 W/m2
17:24 26.0 °C 25.0 °C 1009.8 hPa SW 17 km/h 20 km/h 92% 0.00 mm 7.34 W/m2
17:29 26.0 °C 25.0 °C 1009.8 hPa SSW 14 km/h 20 km/h 92% 0.00 mm 7.34 W/m2
17:34 26.0 °C 25.0 °C 1010.0 hPa SSW 17 km/h 20 km/h 92% 0.00 mm 7.34 W/m2
17:39 26.0 °C 25.0 °C 1010.1 hPa SW 14 km/h 16 km/h 93% 0.00 mm 6.85 W/m2
17:44 26.0 °C 25.0 °C 1010.3 hPa SW 10 km/h 16 km/h 92% 0.00 mm 5.99 W/m2
17:49 26.0 °C 25.0 °C 1010.4 hPa West 12 km/h 16 km/h 92% 0.00 mm 5.63 W/m2
17:54 26.0 °C 25.0 °C 1010.5 hPa West 4 km/h 4 km/h 92% 0.00 mm 4.28 W/m2
17:59 26.0 °C 25.0 °C 1010.6 hPa WSW 10 km/h 12 km/h 92% 0.00 mm 2.94 W/m2
18:04 27.0 °C 24.0 °C 1010.7 hPa SW 10 km/h 12 km/h 86% 0.00 mm 2.08 W/m2
18:09 27.0 °C 24.0 °C 1010.7 hPa SSW 10 km/h 16 km/h 85% 0.00 mm 1.71 W/m2
18:14 27.0 °C 24.0 °C 1010.5 hPa SW 9 km/h 12 km/h 85% 0.00 mm 0.85 W/m2
18:19 27.0 °C 24.0 °C 1010.6 hPa SSW 11 km/h 12 km/h 86% 0.00 mm 0.00 W/m2
18:24 27.0 °C 24.0 °C 1010.7 hPa SSW 10 km/h 12 km/h 87% 0.00 mm 0.00 W/m2
18:29 27.0 °C 25.0 °C 1010.9 hPa SSW 13 km/h 16 km/h 89% 0.00 mm 0.00 W/m2
18:34 27.0 °C 25.0 °C 1011.0 hPa South 15 km/h 20 km/h 89% 0.00 mm 0.00 W/m2
18:39 27.0 °C 25.0 °C 1011.3 hPa South 10 km/h 16 km/h 89% 0.00 mm 0.00 W/m2
18:44 27.0 °C 25.0 °C 1011.2 hPa SSW 8 km/h 12 km/h 89% 0.00 mm 0.00 W/m2
18:49 27.0 °C 25.0 °C 1011.2 hPa SW 15 km/h 20 km/h 89% 0.00 mm 0.00 W/m2
18:54 27.0 °C 25.0 °C 1011.0 hPa SSW 16 km/h 20 km/h 89% 0.00 mm 0.00 W/m2
18:59 27.0 °C 25.0 °C 1011.0 hPa SSW 26 km/h 32 km/h 88% 0.00 mm 0.00 W/m2
19:04 27.0 °C 25.0 °C 1010.9 hPa South 19 km/h 24 km/h 88% 0.00 mm 0.00 W/m2
19:09 28.0 °C 26.0 °C 1011.1 hPa SSW 15 km/h 20 km/h 89% 1.80 mm 0.00 W/m2
19:14 27.0 °C 26.0 °C 1011.1 hPa SW 10 km/h 12 km/h 90% 12.60 mm 0.00 W/m2
19:19 27.0 °C 26.0 °C 1011.2 hPa NW 17 km/h 20 km/h 93% 35.99 mm 0.00 W/m2
19:24 27.0 °C 26.0 °C 1011.4 hPa NNW 28 km/h 40 km/h 94% 55.80 mm 0.00 W/m2
19:34 26.0 °C 25.0 °C 1011.5 hPa NW 13 km/h 20 km/h 95% 10.80 mm 0.00 W/m2
19:39 26.0 °C 25.0 °C 1011.7 hPa NNW 22 km/h 24 km/h 94% 3.61 mm 0.00 W/m2
19:44 26.0 °C 25.0 °C 1011.7 hPa NNW 15 km/h 20 km/h 93% 0.00 mm 0.00 W/m2
19:49 26.0 °C 25.0 °C 1011.9 hPa NNW 13 km/h 16 km/h 93% 0.00 mm 0.00 W/m2
19:54 26.0 °C 25.0 °C 1011.8 hPa NNW 9 km/h 12 km/h 93% 0.00 mm 0.00 W/m2
19:59 26.0 °C 25.0 °C 1011.9 hPa NNW 17 km/h 20 km/h 93% 0.00 mm 0.00 W/m2
20:04 26.0 °C 25.0 °C 1012.0 hPa NNW 14 km/h 20 km/h 93% 0.00 mm 0.00 W/m2
20:09 26.0 °C 25.0 °C 1012.1 hPa NNW 11 km/h 16 km/h 93% 0.00 mm 0.00 W/m2
20:14 26.0 °C 25.0 °C 1012.2 hPa North 15 km/h 20 km/h 93% 0.00 mm 0.00 W/m2
20:19 26.0 °C 25.0 °C 1012.2 hPa North 14 km/h 16 km/h 93% 0.00 mm 0.00 W/m2
20:24 26.0 °C 25.0 °C 1012.4 hPa NNE 12 km/h 16 km/h 93% 0.00 mm 0.00 W/m2
20:29 26.0 °C 25.0 °C 1012.4 hPa NNE 12 km/h 16 km/h 92% 0.00 mm 0.00 W/m2
20:34 26.0 °C 24.0 °C 1012.4 hPa North 12 km/h 12 km/h 92% 0.00 mm 0.00 W/m2
20:39 26.0 °C 25.0 °C 1012.4 hPa NNE 11 km/h 12 km/h 93% 0.00 mm 0.00 W/m2
20:44 26.0 °C 25.0 °C 1012.7 hPa NNE 15 km/h 16 km/h 92% 0.00 mm 0.00 W/m2
20:49 26.0 °C 25.0 °C 1012.8 hPa NNE 18 km/h 24 km/h 92% 0.00 mm 0.00 W/m2
20:54 26.0 °C 24.0 °C 1012.8 hPa NNE 18 km/h 24 km/h 93% 0.00 mm 0.00 W/m2
20:59 26.0 °C 24.0 °C 1012.8 hPa NNE 14 km/h 20 km/h 93% 1.80 mm 0.00 W/m2
21:04 26.0 °C 24.0 °C 1012.6 hPa North 20 km/h 24 km/h 93% 8.99 mm 0.00 W/m2
21:08 25.0 °C 24.0 °C 1012.5 hPa North 15 km/h 16 km/h 93% 16.21 mm 0.00 W/m2
21:19 25.0 °C 24.0 °C 1012.8 hPa NE 10 km/h 12 km/h 94% 5.41 mm 0.00 W/m2
21:24 25.0 °C 24.0 °C 1012.9 hPa NNE 7 km/h 8 km/h 93% 1.80 mm 0.00 W/m2
21:29 25.0 °C 24.0 °C 1013.0 hPa NE 8 km/h 8 km/h 92% 0.00 mm 0.00 W/m2
21:34 26.0 °C 24.0 °C 1012.9 hPa NE 8 km/h 12 km/h 92% 0.00 mm 0.00 W/m2
21:39 26.0 °C 24.0 °C 1013.0 hPa NE 11 km/h 12 km/h 92% 1.80 mm 0.00 W/m2
21:44 25.0 °C 24.0 °C 1012.9 hPa ENE 5 km/h 8 km/h 93% 1.80 mm 0.00 W/m2
21:49 25.0 °C 24.0 °C 1013.1 hPa East 3 km/h 4 km/h 93% 1.80 mm 0.00 W/m2
21:54 26.0 °C 24.0 °C 1013.2 hPa East 4 km/h 4 km/h 92% 0.00 mm 0.00 W/m2
21:59 26.0 °C 24.0 °C 1013.4 hPa East 4 km/h 4 km/h 92% 0.00 mm 0.00 W/m2
22:04 26.0 °C 24.0 °C 1013.3 hPa East 4 km/h 4 km/h 93% 0.00 mm 0.00 W/m2
22:09 26.0 °C 24.0 °C 1013.4 hPa East 8 km/h 8 km/h 92% 0.00 mm 0.00 W/m2
22:14 26.0 °C 24.0 °C 1013.3 hPa Calm   4 km/h 93% 0.00 mm 0.00 W/m2
22:19 26.0 °C 24.0 °C 1013.4 hPa East 3 km/h 4 km/h 92% 0.00 mm 0.00 W/m2
22:24 26.0 °C 24.0 °C 1013.5 hPa ESE 7 km/h 8 km/h 92% 0.00 mm 0.00 W/m2
22:29 26.0 °C 24.0 °C 1013.6 hPa ESE 5 km/h 8 km/h 92% 0.00 mm 0.00 W/m2
22:34 26.0 °C 24.0 °C 1013.6 hPa Calm     92% 0.00 mm 0.00 W/m2
22:39 26.0 °C 24.0 °C 1013.3 hPa ESE 2 km/h 4 km/h 92% 0.00 mm 0.00 W/m2
22:44 26.0 °C 24.0 °C 1013.3 hPa ESE 1 km/h 4 km/h 93% 0.00 mm 0.00 W/m2
22:49 26.0 °C 24.0 °C 1013.2 hPa Calm     92% 0.00 mm 0.00 W/m2
22:52 26.0 °C 24.0 °C 1013.2 hPa Calm     92% 0.00 mm 0.00 W/m2
23:04 26.0 °C 24.0 °C 1013.0 hPa NNE 8 km/h 8 km/h 92% 0.00 mm 0.00 W/m2
23:09 26.0 °C 25.0 °C 1013.1 hPa NNW 13 km/h 16 km/h 93% 0.00 mm 0.00 W/m2
23:14 26.0 °C 25.0 °C 1013.1 hPa NNW 9 km/h 12 km/h 93% 0.00 mm 0.00 W/m2
23:19 26.0 °C 25.0 °C 1013.1 hPa NNW 10 km/h 12 km/h 93% 0.00 mm 0.00 W/m2
23:23 26.0 °C 25.0 °C 1013.1 hPa North 6 km/h 8 km/h 93% 0.00 mm 0.00 W/m2
23:29 26.0 °C 24.0 °C 1013.1 hPa North 4 km/h 4 km/h 93% 0.00 mm 0.00 W/m2
23:34 26.0 °C 24.0 °C 1013.1 hPa NNE 8 km/h 8 km/h 92% 0.00 mm 0.00 W/m2
23:39 26.0 °C 24.0 °C 1013.2 hPa North 9 km/h 12 km/h 92% 0.00 mm 0.00 W/m2
23:44 26.0 °C 24.0 °C 1013.1 hPa North 10 km/h 12 km/h 93% 0.00 mm 0.00 W/m2
23:49 26.0 °C 24.0 °C 1013.0 hPa North 10 km/h 12 km/h 92% 0.00 mm 0.00 W/m2
23:54 26.0 °C 24.0 °C 1013.0 hPa NNE 10 km/h 12 km/h 93% 0.00 mm 0.00 W/m2
23:59 26.0 °C 24.0 °C 1013.2 hPa North 7 km/h 8 km/h 92% 0.00 mm 0.00 W/m2
PIMOHWEATHER Philippines
Compliments of Weather Underground - 2 mb